This demonstration page uses our WeatherBlox Daily Observations layout. Learn more.

Left ArrowRight Arrow

39.08367, -84.50855

Hourly Observations for December 10, 2015

Temp ( °F °C ) Dew Point ( °F °C ) Humidity (%) Winds ( mph kmh ) Pressure ( in mb ) Visibility ( mi km ) Precip ( " mm )
12:29 am 00:29 Clear with Fog 35 1.7 35 1.7 100 100 Calm 29.94 1014 1 1 0.00 0.00
12:32 am 00:32 Mostly Cloudy with Fog 36 2 36 2 100 100 Calm 29.94 1014 0 0 0.00 0.00
12:53 am 00:53 Mostly Cloudy with Fog 34 1.1 34 1.1 100 100 Calm 29.93 1014 0 0 0.00 0.00
1:05 am 01:05 Mostly Cloudy with Fog 34 1.1 34 1.1 100 100 Calm 29.94 1014 0 0 0.00 0.00
1:53 am 01:53 Mostly Cloudy with Fog 35 1.7 35 1.7 100 100 Calm 29.93 1013 0 0 0.00 0.00
2:13 am 02:13 Mostly Cloudy with Fog 36 2.2 36 2.2 100 100 Calm 29.94 1014 1 1 0.00 0.00
2:19 am 02:19 Partly Cloudy with Mist and Fog 36 2 36 2 100 100 Calm 29.94 1014 1 2 0.00 0.00
2:33 am 02:33 Mostly Clear with Mist and Fog 36 2.2 36 2.2 100 100 Calm 29.94 1014 3 5 0.00 0.00
2:53 am 02:53 Clear with Mist and Fog 35 1.7 34 1.1 96 96 Calm 29.93 1013 4 6 0.00 0.00
3:46 am 03:46 Clear with Mist and Fog 36 2 36 2 100 100 Calm 29.94 1014 2 3 0.00 0.00
3:53 am 03:53 Clear with Mist and Fog 34 1.1 34 1.1 100 100 NNE 3 6 29.93 1014 2 3 0.00 0.00
4:30 am 04:30 Mostly Cloudy with Fog 35 1.7 35 1.7 100 100 Calm 29.94 1014 0 0 0.00 0.00
4:46 am 04:46 Mostly Cloudy with Mist and Fog 35 1.7 34 1.1 96 96 Calm 29.94 1014 1 1 0.00 0.00
4:53 am 04:53 Cloudy with Mist and Fog 34 1.1 34 1.1 100 100 N 3 6 29.93 1014 1 2 0.00 0.00
5:03 am 05:03 Cloudy with Mist and Fog 36 2 36 2 100 100 Calm 29.94 1014 3 4 0.00 0.00
5:15 am 05:15 Cloudy with Mist and Fog 35 1.7 35 1.7 100 100 Calm 29.94 1014 3 5 0.00 0.00
5:53 am 05:53 Cloudy with Mist and Fog 39 3.9 39 3.9 100 100 Calm 29.95 1014 4 6 0.00 0.00
6:53 am 06:53 Cloudy with Mist and Fog 42 5.6 42 5.6 100 100 Calm 29.94 1014 4 6 0.00 0.00
7:53 am 07:53 Cloudy with Mist and Fog 46 7.8 45 7.2 96 96 S 6 9 29.94 1014 4 6 0.00 0.00
8:03 am 08:03 Cloudy with Mist and Fog 46 8 45 7 93 93 SSW 6 9 29.94 1014 3 5 0.00 0.00
8:53 am 08:53 Cloudy with Mist and Fog 46 7.8 45 7.2 96 96 SSW 8 13 29.95 1014 3 5 0.00 0.00
9:53 am 09:53 Cloudy with Mist and Fog 48 8.9 46 7.8 93 93 S 10 17 29.95 1014 5 8 0.00 0.00
10:53 am 10:53 Cloudy with Mist and Fog 49 9.4 46 7.8 90 90 S 10 17 29.95 1014 6 10 0.00 0.00
11:07 am 11:07 Cloudy 50 10 46 7.8 86 86 S 8 13 29.94 1014 7 11 0.00 0.00
11:53 am 11:53 Cloudy 51 10.6 46 7.8 83 83 S 12 19 29.93 1013 9 14 0.00 0.00
12:09 pm 12:09 Cloudy 51 10.6 46 7.8 83 83 S 10 17 29.94 1014 10 16 0.00 0.00
12:36 pm 12:36 Partly Cloudy 52 11 46 8 82 82 SSW 10 17 29.91 1013 10 16 0.00 0.00
12:53 pm 12:53 Mostly Sunny 53 11.7 47 8.3 80 80 S 10 17 29.88 1012 10 16 0.00 0.00
1:53 pm 13:53 Sunny 55 12.8 47 8.3 74 74 S 13 20 29.83 1010 10 16 0.00 0.00
2:53 pm 14:53 Sunny 55 12.8 47 8.3 74 74 S 9 15 29.81 1010 10 16 0.00 0.00
3:53 pm 15:53 Sunny 55 12.8 48 8.9 77 77 S 10 17 29.83 1010 10 16 0.00 0.00
4:53 pm 16:53 Sunny 54 12.2 48 8.9 80 80 S 10 17 29.83 1010 9 14 0.00 0.00
5:53 pm 17:53 Clear 53 11.7 47 8.3 80 80 S 12 19 29.82 1010 10 16 0.00 0.00
6:53 pm 18:53 Clear 53 11.7 47 8.3 80 80 S 15 24 29.78 1009 10 16 0.00 0.00
7:53 pm 19:53 Clear 53 11.7 46 7.8 77 77 S 13 20 29.78 1009 10 16 0.00 0.00
8:53 pm 20:53 Clear 50 10 45 7.2 83 83 SSW 9 15 29.79 1009 10 16 0.00 0.00
9:53 pm 21:53 Clear 49 9.4 45 7.2 86 86 SW 6 9 29.80 1009 10 16 0.00 0.00
10:53 pm 22:53 Clear 49 9.4 46 7.8 90 90 SW 8 13 29.80 1009 10 16 0.00 0.00
11:26 pm 23:26 Mostly Cloudy 52 11 48 9 88 88 SSW 12 19 29.83 1010 10 16 0.00 0.00
11:53 pm 23:53 Mostly Cloudy 50 10 47 8.3 89 89 SW 12 19 29.80 1009 10 16 0.00 0.00

Powered by AerisWeather